User: anonymous
Location: Keeble Observatory
(37.7625°N, 77.4755°W)
Time: 04:24:55
(UTC-04:00)
Language:

Cosmos 1484 Rocket - Orbit

View from above orbital plane
View from above orbital plane
View from above satellite
View from above satellite

Ground track
Ground track

The orbit data is extracted from the following two-line orbital elements,

1 14208U 83075B   14114.32765841  .00004786  00000-0  31949-3 0    24
2 14208 097.4305 153.0550 0044182 126.4733 234.0578 15.06674115674090
Epoch (UTC): 24 April 2014 07:51:49
Eccentricity: 0.0044182
inclination: 97.4305°
perigee height: 516 km
apogee height: 577 km
right ascension of ascending node: 153.0550°
argument of perigee: 126.4733°
revolutions per day: 15.06674115
mean anomaly at epoch: 234.0578°
orbit number at epoch: 67409

The dashed part of the orbit path shows where the satellite is in the earth's shadow,  

DLR